STARLINK-30048 (55711 NORAD) Tracking and Keplerian Element Data

This shows tracking and keplerian element data for the satellite.

Feedback or suggestion? Click here.




ElementValue
Catalog55711
NameSTARLINK-30048
Epoch Orbit169
Epoch Day63.16667824
Epoch Year2023
RAAN258.106
Inclination43.0108
Eccentricity0.0001513
Argument of Perigee283.6834
Mean Anonmoly152.2512
Mean Motion15.66310134
Decay Rate-0.00899611
L11 55711U 23026S 23063.16667824 -.00899611 00000+0 -92639-2 0 9992
L22 55711 43.0108 258.1060 0001513 283.6834 152.2512 15.66310134 1697



Live tracking and technical data element details for STARLINK-30048 (NORAD 55711). STARLINK-30048 can be tracked NOW for your location showing map with azimuth and elevation plus other details from your city location.







IsCatalogInMostPopularTable: catalog: 55711, numindb: 7
Update: records affected: 1



GetName: 55711 STARLINK-30048

Hit Count: updated at: Wed, 22 Mar 2023 16:50:46 GMT